EW8998 Weather Reports


Display with metric or nautical units.
time (UTC)temp
F
wind
direction
speed
MPH
gust
MPH
rain 1hr
in
rain 24hr
in
rain mn
in
humidity
%
barometer
mb
20190319002254 62 90 0.0 1.0 0.00 0.00 0.00 49 1021.5
20190319001754 62 78 0.0 1.0 0.00 0.00 0.00 52 1021.4
20190319001249 63 108 0.0 0.0 0.00 0.00 0.00 53 1021.3
20190319000751 63 103 0.0 0.0 0.00 0.00 0.00 53 1021.3
20190319000254 63 77 0.0 0.0 0.00 0.00 0.00 52 1021.2
20190318235740 63 80 0.0 0.0 0.00 0.00 0.00 51 1021.0
20190318235241 63 111 0.0 0.0 0.00 0.00 0.00 50 1020.9
20190318234737 64 67 0.0 0.0 0.00 0.00 0.00 49 1020.8
20190318234239 64 112 0.0 0.0 0.00 0.00 0.00 49 1020.9
20190318233735 64 102 0.0 0.0 0.00 0.00 0.00 48 1021.0
20190318233236 64 118 0.0 0.0 0.00 0.00 0.00 47 1020.9
20190318232737 64 102 0.0 0.0 0.00 0.00 0.00 47 1020.8
20190318232237 64 101 0.0 0.0 0.00 0.00 0.00 46 1020.9
20190318231737 65 109 0.0 0.0 0.00 0.00 0.00 45 1020.8
20190318231234 65 106 0.0 0.0 0.00 0.00 0.00 45 1020.7
20190318230734 65 116 0.0 2.0 0.00 0.00 0.00 44 1020.7
20190318230235 65 129 0.0 2.0 0.00 0.00 0.00 42 1020.8
20190318225734 65 138 0.0 2.0 0.00 0.00 0.00 40 1020.8
20190318225233 65 108 0.0 2.0 0.00 0.00 0.00 39 1020.7
20190318224731 65 105 0.0 1.0 0.00 0.00 0.00 38 1020.6
20190318224233 66 157 0.0 0.0 0.00 0.00 0.00 38 1020.5
20190318223732 66 99 0.0 0.0 0.00 0.00 0.00 38 1020.4
20190318223229 66 71 0.0 0.0 0.00 0.00 0.00 38 1020.3
20190318222728 66 119 0.0 0.0 0.00 0.00 0.00 37 1020.4
20190318222230 66 56 0.0 0.0 0.00 0.00 0.00 35 1020.4
20190318221727 66 70 0.0 0.0 0.00 0.00 0.00 35 1020.4
20190318221226 67 94 0.0 0.0 0.00 0.00 0.00 35 1020.4
20190318220727 67 121 0.0 0.0 0.00 0.00 0.00 35 1020.3
20190318220222 67 126 0.0 0.0 0.00 0.00 0.00 34 1020.5
20190318215722 67 110 0.0 1.0 0.00 0.00 0.00 36 1020.5
20190318215222 67 106 0.0 1.0 0.00 0.00 0.00 34 1020.6
20190318214721 67 101 0.0 0.0 0.00 0.00 0.00 34 1020.7
20190318214221 66 90 0.0 0.0 0.00 0.00 0.00 36 1020.7
20190318213718 67 130 0.0 0.0 0.00 0.00 0.00 35 1020.8
20190318213213 67 67 0.0 0.0 0.00 0.00 0.00 34 1020.9
20190318212715 67 99 0.0 1.0 0.00 0.00 0.00 37 1020.9
20190318212214 67 45 0.0 1.0 0.00 0.00 0.00 37 1020.8
20190318211715 67 67 0.0 0.0 0.00 0.00 0.00 36 1020.8
20190318211214 68 92 0.0 0.0 0.00 0.00 0.00 34 1020.8
20190318210709 68 44 0.0 0.0 0.00 0.00 0.00 35 1020.8
20190318210211 68 86 0.0 1.0 0.00 0.00 0.00 35 1020.9
20190318205710 67 99 0.0 1.0 0.00 0.00 0.00 35 1021.0
20190318205212 67 87 0.0 0.0 0.00 0.00 0.00 35 1021.2
20190318204710 67 84 0.0 0.0 0.00 0.00 0.00 35 1021.3
20190318204209 66 87 0.0 0.0 0.00 0.00 0.00 36 1021.6
20190318203710 66 74 0.0 0.0 0.00 0.00 0.00 36 1021.6
20190318203210 66 97 0.0 0.0 0.00 0.00 0.00 34 1021.6
20190318202721 66 68 0.0 0.0 0.00 0.00 0.00 35 1021.6
20190318202210 66 109 0.0 0.0 0.00 0.00 0.00 35 1021.7
20190318201710 66 69 0.0 0.0 0.00 0.00 0.00 37 1021.7
20190318201202 66 100 0.0 0.0 0.00 0.00 0.00 36 1021.8
20190318200706 66 98 0.0 6.0 0.00 0.00 0.00 39 1022.0
20190318200202 66 107 0.0 6.0 0.00 0.00 0.00 37 1022.0
20190318195702 67 105 0.0 0.0 0.00 0.00 0.00 37 1022.2
20190318195201 67 110 0.0 1.0 0.00 0.00 0.00 36 1022.3
20190318194701 67 74 0.0 1.0 0.00 0.00 0.00 41 1022.2
20190318194159 67 89 0.0 0.0 0.00 0.00 0.00 41 1022.2
20190318193701 67 90 0.0 0.0 0.00 0.00 0.00 38 1022.4
20190318193201 67 26 0.0 0.0 0.00 0.00 0.00 39 1022.3
20190318192654 67 92 0.0 0.0 0.00 0.00 0.00 40 1022.5
20190318192153 67 101 0.0 0.0 0.00 0.00 0.00 40 1022.8
20190318191655 67 71 0.0 2.0 0.00 0.00 0.00 39 1022.9
20190318191153 67 61 0.0 2.0 0.00 0.00 0.00 42 1023.0
20190318190653 66 31 0.0 0.0 0.00 0.00 0.00 40 1023.1
20190318190150 66 117 0.0 0.0 0.00 0.00 0.00 42 1023.2
20190318185641 66 107 0.0 0.0 0.00 0.00 0.00 43 1023.4
20190318185141 65 124 0.0 0.0 0.00 0.00 0.00 43 1023.4
20190318184641 65 110 0.0 0.0 0.00 0.00 0.00 45 1023.4
20190318184140 65 74 0.0 0.0 0.00 0.00 0.00 44 1023.6
20190318183634 65 61 0.0 0.0 0.00 0.00 0.00 42 1023.8
20190318183130 65 85 0.0 0.0 0.00 0.00 0.00 42 1023.8
20190318182630 65 109 0.0 0.0 0.00 0.00 0.00 44 1023.8
20190318182122 64 66 0.0 0.0 0.00 0.00 0.00 43 1024.0
20190318181622 64 77 0.0 0.0 0.00 0.00 0.00 45 1024.1
20190318181122 63 61 0.0 0.0 0.00 0.00 0.00 45 1024.0
20190318180616 63 91 0.0 0.0 0.00 0.00 0.00 47 1024.1
20190318180113 62 32 0.0 0.0 0.00 0.00 0.00 45 1024.3
20190318175617 62 34 0.0 0.0 0.00 0.00 0.00 47 1024.2
20190318175112 62 59 0.0 0.0 0.00 0.00 0.00 48 1024.3
20190318174621 62 69 0.0 0.0 0.00 0.00 0.00 48 1024.2
20190318174107 61 72 0.0 0.0 0.00 0.00 0.00 49 1024.3
20190318173614 61 83 0.0 0.0 0.00 0.00 0.00 49 1024.3
20190318173105 61 43 0.0 0.0 0.00 0.00 0.00 50 1024.5
20190318172606 61 62 0.0 0.0 0.00 0.00 0.00 52 1024.6
20190318172101 61 61 0.0 0.0 0.00 0.00 0.00 51 1024.4
20190318171606 61 43 0.0 2.0 0.00 0.00 0.00 51 1024.5
20190318171057 60 15 0.0 2.0 0.00 0.00 0.00 53 1024.5
20190318170600 60 76 0.0 0.0 0.00 0.00 0.00 52 1024.6
20190318170054 60 24 0.0 1.0 0.00 0.00 0.00 52 1024.5
20190318165552 60 43 0.0 1.0 0.00 0.00 0.00 51 1024.5
20190318165045 60 76 0.0 1.0 0.00 0.00 0.00 55 1024.5
20190318164553 60 43 0.0 1.0 0.00 0.00 0.00 54 1024.5
20190318164045 60 47 0.0 0.0 0.00 0.00 0.00 54 1024.6
20190318163554 60 46 0.0 0.0 0.00 0.00 0.00 57 1024.4
20190318163046 60 11 0.0 0.0 0.00 0.00 0.00 60 1024.4
20190318162550 60 348 0.0 0.0 0.00 0.00 0.00 59 1024.4
20190318162049 59 328 0.0 0.0 0.00 0.00 0.00 61 1024.4
20190318161553 59 40 0.0 1.0 0.00 0.00 0.00 61 1024.3
20190318161053 59 103 0.0 1.0 0.00 0.00 0.00 62 1024.3
20190318160552 59 0 0.0 0.0 0.00 0.00 0.00 64 1024.3
20190318155859 58 347 0.0 1.0 0.00 0.00 0.00 64 1024.3
20190318155400 58 355 0.0 1.0 0.00 0.00 0.00 65 1024.2
20190318154858 58 324 0.0 0.0 0.00 0.00 0.00 65 1023.9
20190318154353 57 51 0.0 0.0 0.00 0.00 0.00 66 1023.9
20190318153853 57 5 0.0 0.0 0.00 0.00 0.00 67 1024.0
20190318153354 57 5 0.0 0.0 0.00 0.00 0.00 67 1024.2
20190318152857 57 36 0.0 0.0 0.00 0.00 0.00 69 1024.1
20190318152353 56 61 0.0 0.0 0.00 0.00 0.00 69 1024.2
20190318151850 56 61 0.0 0.0 0.00 0.00 0.00 70 1024.3
20190318151344 56 26 0.0 0.0 0.00 0.00 0.00 71 1024.2
20190318150844 56 28 0.0 0.0 0.00 0.00 0.00 73 1024.2
20190318150342 55 51 0.0 0.0 0.00 0.00 0.00 74 1024.2
20190318145836 55 28 0.0 0.0 0.00 0.00 0.00 74 1024.0
20190318145337 55 345 0.0 1.0 0.00 0.00 0.00 75 1023.6
20190318144836 54 25 0.0 1.0 0.00 0.00 0.00 77 1023.7
20190318144329 54 26 0.0 0.0 0.00 0.00 0.00 78 1023.7
20190318143829 53 35 0.0 0.0 0.00 0.00 0.00 80 1023.8
20190318143331 53 27 0.0 0.0 0.00 0.00 0.00 80 1023.8
20190318142829 53 25 0.0 0.0 0.00 0.00 0.00 80 1023.5
20190318142326 52 40 0.0 0.0 0.00 0.00 0.00 81 1023.3
20190318141817 52 55 0.0 0.0 0.00 0.00 0.00 82 1023.3
20190318141318 52 48 0.0 0.0 0.00 0.00 0.00 83 1023.4
20190318140815 51 34 0.0 0.0 0.00 0.00 0.00 83 1023.6
20190318140313 51 0 0.0 0.0 0.00 0.00 0.00 84 1023.6
20190318135812 51 346 0.0 0.0 0.00 0.00 0.00 84 1023.6
20190318135307 51 323 0.0 0.0 0.00 0.00 0.00 85 1023.5
20190318134807 51 34 0.0 0.0 0.00 0.00 0.00 85 1023.2
20190318134308 50 350 0.0 0.0 0.00 0.00 0.00 85 1023.2
20190318133757 50 13 0.0 0.0 0.00 0.00 0.00 85 1023.3
20190318133257 50 344 0.0 0.0 0.00 0.00 0.00 85 1023.2
20190318132757 50 15 0.0 0.0 0.00 0.00 0.00 86 1023.2
20190318132258 50 42 0.0 0.0 0.00 0.00 0.00 86 1023.1
20190318131758 49 24 0.0 0.0 0.00 0.00 0.00 86 1023.1
20190318131257 49 40 0.0 0.0 0.00 0.00 0.00 87 1022.9
20190318130759 49 51 0.0 0.0 0.00 0.00 0.00 87 1022.7
20190318130247 49 5 0.0 0.0 0.00 0.00 0.00 87 1022.6
20190318125745 49 5 0.0 0.0 0.00 0.00 0.00 88 1022.6
20190318125245 49 331 0.0 0.0 0.00 0.00 0.00 88 1022.5
20190318124743 49 355 0.0 0.0 0.00 0.00 0.00 88 1022.6
20190318124243 49 38 0.0 0.0 0.00 0.00 0.00 89 1022.6
20190318123743 49 12 0.0 0.0 0.00 0.00 0.00 89 1022.6
20190318123242 49 18 0.0 0.0 0.00 0.00 0.00 89 1022.6
20190318122744 48 18 0.0 0.0 0.00 0.00 0.00 89 1022.6
20190318122242 48 46 0.0 0.0 0.00 0.00 0.00 89 1022.5
20190318121742 48 35 0.0 0.0 0.00 0.00 0.00 90 1022.3
20190318121243 48 5 0.0 0.0 0.00 0.00 0.00 90 1022.2
20190318120742 48 5 0.0 0.0 0.00 0.00 0.00 90 1022.1
20190318120234 48 16 0.0 0.0 0.00 0.00 0.00 90 1022.0
20190318115733 48 338 0.0 0.0 0.00 0.00 0.00 91 1022.2
20190318115231 48 338 0.0 0.0 0.00 0.00 0.00 91 1022.3
20190318114733 47 349 0.0 0.0 0.00 0.00 0.00 91 1022.2
20190318114232 47 355 0.0 0.0 0.00 0.00 0.00 91 1022.2
20190318113725 47 355 0.0 0.0 0.00 0.00 0.00 92 1022.1
20190318113224 47 336 0.0 0.0 0.00 0.00 0.00 92 1022.0
20190318112714 47 20 0.0 0.0 0.00 0.00 0.00 92 1021.9
20190318112213 47 20 0.0 0.0 0.00 0.00 0.00 92 1022.0
20190318111714 46 20 0.0 0.0 0.00 0.00 0.00 92 1021.9
20190318111213 46 20 0.0 0.0 0.00 0.00 0.00 91 1021.8
20190318110714 46 20 0.0 0.0 0.00 0.00 0.00 91 1021.8
20190318110213 46 20 0.0 0.0 0.00 0.00 0.00 91 1021.7
20190318105714 46 20 0.0 0.0 0.00 0.00 0.00 91 1021.8
20190318105211 46 20 0.0 0.0 0.00 0.00 0.00 91 1021.8
20190318104710 46 20 0.0 0.0 0.00 0.00 0.00 91 1021.7
20190318104211 46 20 0.0 0.0 0.00 0.00 0.00 91 1021.7
20190318103709 46 20 0.0 0.0 0.00 0.00 0.00 90 1021.7
20190318103210 46 20 0.0 0.0 0.00 0.00 0.00 90 1021.6
20190318102708 46 20 0.0 0.0 0.00 0.00 0.00 90 1021.7
20190318102210 47 21 0.0 0.0 0.00 0.00 0.00 90 1021.4
20190318101700 47 21 0.0 0.0 0.00 0.00 0.00 90 1021.4
20190318101200 47 21 0.0 0.0 0.00 0.00 0.00 90 1021.2
20190318100659 47 21 0.0 0.0 0.00 0.00 0.00 91 1021.2
20190318100200 47 21 0.0 0.0 0.00 0.00 0.00 91 1021.2
20190318095652 48 16 0.0 0.0 0.00 0.00 0.00 91 1021.2
20190318095152 48 15 0.0 0.0 0.00 0.00 0.00 91 1021.4
20190318094653 48 16 0.0 0.0 0.00 0.00 0.00 92 1021.4
20190318094154 48 15 0.0 0.0 0.00 0.00 0.00 92 1021.4
20190318093652 48 11 0.0 0.0 0.00 0.00 0.00 92 1021.6
20190318093152 47 11 0.0 0.0 0.00 0.00 0.00 92 1021.6
20190318092642 47 11 0.0 0.0 0.00 0.00 0.00 92 1021.8
20190318092143 47 78 0.0 0.0 0.00 0.00 0.00 92 1022.0
20190318091642 47 78 0.0 0.0 0.00 0.00 0.00 92 1022.1
20190318091143 47 78 0.0 0.0 0.00 0.00 0.00 92 1022.0
20190318090637 47 78 0.0 0.0 0.00 0.00 0.00 92 1022.1
20190318090137 47 78 0.0 0.0 0.00 0.00 0.00 92 1022.0
20190318085639 47 78 0.0 0.0 0.00 0.00 0.00 92 1022.1
20190318085136 47 78 0.0 0.0 0.00 0.00 0.00 92 1022.2
20190318084637 47 78 0.0 0.0 0.00 0.00 0.00 92 1022.2
20190318084136 47 79 0.0 0.0 0.00 0.00 0.00 92 1022.2
20190318083637 47 115 0.0 0.0 0.00 0.00 0.00 92 1022.3
20190318083139 47 115 0.0 0.0 0.00 0.00 0.00 92 1022.3
20190318082637 47 115 0.0 0.0 0.00 0.00 0.00 92 1022.3
20190318082136 47 115 0.0 0.0 0.00 0.00 0.00 92 1022.4
20190318081638 47 115 0.0 0.0 0.00 0.00 0.00 91 1022.3
20190318081138 47 115 0.0 0.0 0.00 0.00 0.00 91 1022.4
20190318080634 47 115 0.0 0.0 0.00 0.00 0.00 91 1022.5
20190318080133 47 115 0.0 0.0 0.00 0.00 0.00 91 1022.5
20190318075631 47 115 0.0 0.0 0.00 0.00 0.00 91 1022.5
20190318075131 47 115 0.0 0.0 0.00 0.00 0.00 91 1022.7
20190318074630 47 115 0.0 0.0 0.00 0.00 0.00 91 1022.8
20190318074129 47 115 0.0 0.0 0.00 0.00 0.00 90 1022.7
20190318073630 48 115 0.0 0.0 0.00 0.00 0.00 91 1022.8
20190318073126 48 115 0.0 0.0 0.00 0.00 0.00 90 1022.8
20190318072624 48 115 0.0 0.0 0.00 0.00 0.00 90 1022.8
20190318072121 48 115 0.0 0.0 0.00 0.00 0.00 90 1022.9
20190318071617 48 115 0.0 0.0 0.00 0.00 0.00 90 1022.9
20190318071114 48 115 0.0 0.0 0.00 0.00 0.00 90 1022.9
20190318070615 48 115 0.0 0.0 0.00 0.00 0.00 90 1022.9
20190318070111 49 115 0.0 0.0 0.00 0.00 0.00 90 1023.0
20190318065607 49 115 0.0 0.0 0.00 0.00 0.00 89 1023.0
20190318065108 49 115 0.0 0.0 0.00 0.00 0.00 89 1023.0
20190318064608 49 115 0.0 0.0 0.00 0.00 0.00 89 1023.0
20190318064103 48 115 0.0 0.0 0.00 0.00 0.00 89 1022.9
20190318063602 49 115 0.0 0.0 0.00 0.00 0.00 88 1023.0
20190318063059 49 115 0.0 0.0 0.00 0.00 0.00 88 1022.9
20190318062557 49 115 0.0 0.0 0.00 0.00 0.00 88 1023.0
20190318062056 49 115 0.0 0.0 0.00 0.00 0.00 88 1023.0
20190318061556 49 115 0.0 0.0 0.00 0.00 0.00 87 1023.0
20190318061054 49 115 0.0 0.0 0.00 0.00 0.00 87 1022.9
20190318060554 49 115 0.0 0.0 0.00 0.00 0.00 87 1022.7
20190318060053 49 115 0.0 0.0 0.00 0.00 0.00 86 1022.6
20190318055549 49 115 0.0 0.0 0.00 0.00 0.00 86 1022.6
20190318055045 50 115 0.0 0.0 0.00 0.00 0.00 86 1022.6
20190318054542 50 115 0.0 0.0 0.00 0.00 0.00 86 1022.7
20190318054043 50 115 0.0 0.0 0.00 0.00 0.00 85 1022.8
20190318053539 50 115 0.0 0.0 0.00 0.00 0.00 85 1022.9
20190318053035 50 115 0.0 0.0 0.00 0.00 0.00 85 1022.9
20190318052535 51 115 0.0 0.0 0.00 0.00 0.00 85 1022.9
20190318052038 51 115 0.0 0.0 0.00 0.00 0.00 84 1023.0
20190318051533 51 115 0.0 0.0 0.00 0.00 0.00 83 1023.0
20190318051032 50 115 0.0 0.0 0.00 0.00 0.00 82 1022.9
20190318050533 50 115 0.0 0.0 0.00 0.00 0.00 81 1022.9
20190318050033 50 115 0.0 0.0 0.00 0.00 0.00 81 1022.8
20190318045533 50 115 0.0 0.0 0.00 0.00 0.00 80 1022.9
20190318045032 50 115 0.0 0.0 0.00 0.00 0.00 80 1022.8
20190318044532 50 115 0.0 0.0 0.00 0.00 0.00 80 1022.8
20190318044032 50 115 0.0 0.0 0.00 0.00 0.00 80 1022.9
20190318043529 50 115 0.0 0.0 0.00 0.00 0.00 80 1022.9
20190318043019 51 115 0.0 0.0 0.00 0.00 0.00 79 1022.9
20190318042515 51 115 0.0 0.0 0.00 0.00 0.00 79 1022.9
20190318042015 51 115 0.0 0.0 0.00 0.00 0.00 78 1023.0
20190318041514 51 115 0.0 0.0 0.00 0.00 0.00 77 1023.0
20190318041013 51 115 0.0 0.0 0.00 0.00 0.00 77 1022.9
20190318040509 51 115 0.0 0.0 0.00 0.00 0.00 76 1022.9
20190318040010 51 115 0.0 0.0 0.00 0.00 0.00 76 1023.0
20190318035509 51 115 0.0 0.0 0.00 0.00 0.00 75 1022.9
20190318035007 52 115 0.0 0.0 0.00 0.00 0.00 75 1022.9
20190318034507 52 115 0.0 0.0 0.00 0.00 0.00 75 1023.0
20190318034006 52 115 0.0 0.0 0.00 0.00 0.00 75 1023.0
20190318033508 52 115 0.0 0.0 0.00 0.00 0.00 74 1023.0
20190318033006 53 115 0.0 0.0 0.00 0.00 0.00 74 1023.0
20190318032502 53 150 0.0 0.0 0.00 0.00 0.00 74 1023.1
20190318032002 53 150 0.0 0.0 0.00 0.00 0.00 74 1023.1
20190318031503 53 150 0.0 0.0 0.00 0.00 0.00 74 1023.0
20190318030957 53 150 0.0 0.0 0.00 0.00 0.00 74 1023.0
20190318030456 53 148 0.0 0.0 0.00 0.00 0.00 74 1023.1
20190318025953 53 159 0.0 0.0 0.00 0.00 0.00 75 1023.1
20190318025447 53 159 0.0 0.0 0.00 0.00 0.00 74 1023.0
20190318024949 53 159 0.0 0.0 0.00 0.00 0.00 75 1023.0
20190318024449 54 163 0.0 0.0 0.00 0.00 0.00 75 1022.8
20190318023949 54 165 0.0 0.0 0.00 0.00 0.00 74 1022.9
20190318023448 54 165 0.0 0.0 0.00 0.00 0.00 74 1023.0
20190318022949 54 165 0.0 0.0 0.00 0.00 0.00 73 1022.8
20190318022451 55 165 0.0 0.0 0.00 0.00 0.00 73 1022.8
20190318021946 55 165 0.0 0.0 0.00 0.00 0.00 72 1022.8
20190318021443 55 165 0.0 0.0 0.00 0.00 0.00 71 1022.8
20190318020942 55 165 0.0 0.0 0.00 0.00 0.00 71 1022.8
20190318020443 56 164 0.0 0.0 0.00 0.00 0.00 71 1022.8
20190318015941 56 164 0.0 0.0 0.00 0.00 0.00 70 1022.9
20190318015441 56 159 0.0 0.0 0.00 0.00 0.00 70 1022.7
20190318014937 56 156 0.0 0.0 0.00 0.00 0.00 70 1022.5
20190318014436 56 166 0.0 0.0 0.00 0.00 0.00 70 1022.4
20190318013937 56 167 0.0 0.0 0.00 0.00 0.00 70 1022.6
20190318013437 56 166 0.0 0.0 0.00 0.00 0.00 69 1022.6
20190318012936 57 148 0.0 0.0 0.00 0.00 0.00 69 1022.4
20190318012436 57 149 0.0 0.0 0.00 0.00 0.00 68 1022.3
20190318011937 57 147 0.0 0.0 0.00 0.00 0.00 68 1022.2
20190318011435 57 148 0.0 0.0 0.00 0.00 0.00 67 1022.2
20190318010937 57 155 0.0 0.0 0.00 0.00 0.00 66 1022.2
20190318010436 57 155 0.0 0.0 0.00 0.00 0.00 66 1022.3
20190318005938 58 140 0.0 0.0 0.00 0.00 0.00 65 1022.2
20190318005428 58 159 0.0 0.0 0.00 0.00 0.00 64 1022.2
20190318004929 58 153 0.0 0.0 0.00 0.00 0.00 62 1022.2
20190318004426 58 156 0.0 0.0 0.00 0.00 0.00 62 1022.2
20190318003927 58 170 0.0 0.0 0.00 0.00 0.00 61 1022.3
20190318003424 59 170 0.0 0.0 0.00 0.00 0.00 60 1022.3
20190318002928 60 157 0.0 0.0 0.00 0.00 0.00 59 1022.3